Location: Unspecified
(0.0000°N, 0.0000°E)
Time: 00:53:30
(UTC+01:00)

PROBA 2 - Visible Passes

Search period start: 08 February 2016 00:00
Search period end: 18 February 2016 00:00
Orbit: 706 x 726 km, 98.3° (Epoch: 06 February)

Date Brightness Start Highest point End Pass type
(mag) Time Alt. Az. Time Alt. Az. Time Alt. Az.
08 Feb ? 20:05:19 10° NNW 20:09:10 24° WNW 20:13:02 10° SW visible
10 Feb ? 20:01:05 10° NNW 20:05:07 27° WNW 20:09:11 10° SW visible
11 Feb ? 06:46:41 10° SE 06:50:55 31° ENE 06:55:07 10° NNE visible
12 Feb ? 19:56:52 10° NNW 20:01:04 30° WNW 20:05:19 10° SW visible
13 Feb ? 06:42:48 10° SE 06:46:52 28° ENE 06:50:54 10° NNE visible
14 Feb ? 19:52:40 10° NNW 19:57:01 34° WNW 20:01:25 10° SW visible
15 Feb ? 06:38:56 10° SE 06:42:49 25° ENE 06:46:40 10° NNE visible
16 Feb ? 19:48:29 10° N 19:52:59 38° WNW 19:57:30 10° SW visible
17 Feb ? 06:35:06 10° SE 06:38:46 22° ENE 06:42:23 10° NNE visible
